This is the latest recevied weather packets stored in our database for station/object KE4EST. If no packets are shown the sender has not sent any weather packets the latest 10 day(s).
| Time | Temp. | Humidity | Pressure | Rain* | Wind** | Luminosity | Snow |
|---|---|---|---|---|---|---|---|
| 1778073351 | 16.11° C | 97% | 1014.5 hPa | 0 mm | - | 25 W/m² | - |
| 1778073047 | 16.11° C | 96% | 1014.9 hPa | 0 mm | - | 18 W/m² | - |
| 1778072744 | 16.11° C | 96% | 1014.7 hPa | 0 mm | - | 36 W/m² | - |
| 1778072442 | 16.11° C | 96% | 1014.6 hPa | 0 mm | - | 19 W/m² | - |
| 1778072140 | 16.11° C | 97% | 1014.4 hPa | 0 mm | - | 28 W/m² | - |
| 1778071837 | 16.11° C | 97% | 1014.4 hPa | 0 mm | - | 25 W/m² | - |
| 1778071535 | 16.11° C | 97% | 1014.8 hPa | 0 mm | - | 15 W/m² | - |
| 1778071232 | 16.11° C | 97% | 1014.8 hPa | 0 mm | - | 12 W/m² | - |
| 1778070930 | 16.11° C | 97% | 1014.8 hPa | 0 mm | - | 7 W/m² | - |
| 1778070628 | 16.11° C | 97% | 1014.4 hPa | 0 mm | - | 12 W/m² | - |
| 1778070324 | 16.11° C | 97% | 1014.4 hPa | 0 mm | - | 18 W/m² | - |
| 1778070023 | 16.11° C | 97% | 1014.6 hPa | 0 mm | - | 11 W/m² | - |
| 1778069720 | 16.11° C | 97% | 1014.5 hPa | 0 mm | - | 11 W/m² | - |
| 1778069416 | 16.11° C | 97% | 1014.2 hPa | 0 mm | - | 12 W/m² | - |
| 1778069114 | 16.11° C | 96% | 1014.2 hPa | 0 mm | - | 10 W/m² | - |
| 1778068811 | 16.11° C | 96% | 1014.7 hPa | 0 mm | - | 7 W/m² | - |
| 1778068509 | 16.11° C | 95% | 1014.6 hPa | 1.27 mm | - | 9 W/m² | - |
| 1778068207 | 16.11° C | 93% | 1014.2 hPa | 1.27 mm | - | 9 W/m² | - |
| 1778067904 | 16.11° C | 93% | 1014.2 hPa | 0 mm | - | 5 W/m² | - |
| 1778067603 | 16.67° C | 92% | 1014.4 hPa | 0 mm | - | 2 W/m² | - |
| 1778067300 | 16.67° C | 91% | 1014.2 hPa | 0 mm | - | 2 W/m² | - |
| 1778066996 | 16.67° C | 89% | 1014.1 hPa | 0 mm | - | 5 W/m² | - |
| 1778066694 | 16.67° C | 88% | 1014.1 hPa | 0 mm | - | 2 W/m² | - |
| 1778066391 | 16.67° C | 87% | 1014.2 hPa | 0 mm | - | 3 W/m² | - |
| 1778066089 | 17.22° C | 86% | 1013.8 hPa | 0 mm | - | 4 W/m² | - |
* Rain latest hour (hover to see other rain measurements)
** Current wind speed in m/s (hover to see current wind gust speed)